TimeEST,TemperatureF,Dew PointF,Humidity,Sea Level PressureIn,VisibilityMPH,Wind Direction,Wind SpeedMPH,Gust SpeedMPH,PrecipitationIn,Events,Conditions,WindDirDegrees,DateUTC
12:00 AM,69.8,66.2,88,29.95,0.8,East,5.8,-,0.07,Rain,Heavy Rain,80,2013-12-02 05:00:00
12:05 AM,69.8,66.2,88,29.95,2.0,ENE,5.8,-,0.16,Rain,Heavy Rain,70,2013-12-02 05:05:00
12:35 AM,69.8,66.2,88,29.93,3.0,ENE,3.5,-,0.25,Rain,Light Rain,60,2013-12-02 05:35:00
12:53 AM,69.1,66.9,93,29.93,6.0,NE,5.8,-,0.30,Rain,Rain,50,2013-12-02 05:53:00
1:07 AM,69.8,66.2,88,29.92,10.0,North,4.6,-,0.01,Rain,Light Rain,10,2013-12-02 06:07:00
1:14 AM,69.8,66.2,88,29.92,10.0,Calm,Calm,-,0.01,Rain,Light Rain,0,2013-12-02 06:14:00
1:53 AM,69.1,66.0,90,29.90,10.0,North,4.6,-,0.01,,Overcast,360,2013-12-02 06:53:00
2:21 AM,69.8,66.2,88,29.89,10.0,North,4.6,-,N/A,,Overcast,350,2013-12-02 07:21:00
2:39 AM,69.8,66.2,88,29.88,10.0,North,3.5,-,N/A,,Overcast,360,2013-12-02 07:39:00
2:53 AM,69.1,66.9,93,29.88,10.0,North,4.6,-,N/A,,Mostly Cloudy,350,2013-12-02 07:53:00
3:07 AM,69.8,66.2,88,29.87,10.0,North,5.8,-,N/A,,Overcast,350,2013-12-02 08:07:00
3:21 AM,69.8,66.2,88,29.87,10.0,NNW,5.8,-,N/A,,Overcast,340,2013-12-02 08:21:00
3:48 AM,66.2,66.2,100,29.87,10.0,NNW,4.6,-,N/A,,Overcast,330,2013-12-02 08:48:00
3:53 AM,68.0,66.9,96,29.86,10.0,NNW,4.6,-,N/A,,Overcast,330,2013-12-02 08:53:00
4:45 AM,69.8,66.2,88,29.86,10.0,NW,8.1,-,N/A,,Overcast,320,2013-12-02 09:45:00
4:53 AM,68.0,66.9,96,29.86,10.0,NW,8.1,-,0.00,Rain,Light Rain,320,2013-12-02 09:53:00
5:23 AM,68.0,66.2,94,29.86,7.0,NW,5.8,-,0.00,,Overcast,310,2013-12-02 10:23:00
5:38 AM,66.2,66.2,100,29.86,2.5,NW,9.2,-,0.00,,Overcast,320,2013-12-02 10:38:00
5:53 AM,66.9,66.0,97,29.87,2.0,WNW,8.1,-,0.00,,Overcast,300,2013-12-02 10:53:00
6:08 AM,66.2,64.4,94,29.87,1.5,WNW,9.2,-,N/A,,Overcast,290,2013-12-02 11:08:00
6:34 AM,66.2,64.4,94,29.87,3.0,West,6.9,-,N/A,,Overcast,280,2013-12-02 11:34:00
6:44 AM,66.2,64.4,94,29.87,6.0,West,8.1,-,N/A,,Overcast,280,2013-12-02 11:44:00
6:53 AM,66.0,64.0,93,29.87,6.0,West,6.9,-,N/A,,Overcast,280,2013-12-02 11:53:00
7:13 AM,66.2,64.4,94,29.88,6.0,WNW,8.1,-,N/A,,Overcast,290,2013-12-02 12:13:00
7:48 AM,66.2,64.4,94,29.88,6.0,WNW,9.2,-,N/A,,Mostly Cloudy,300,2013-12-02 12:48:00
7:53 AM,64.9,64.0,97,29.88,6.0,WNW,8.1,-,N/A,,Mostly Cloudy,300,2013-12-02 12:53:00
8:49 AM,66.2,64.4,94,29.90,10.0,NW,11.5,-,N/A,,Overcast,310,2013-12-02 13:49:00
8:53 AM,66.0,64.0,93,29.90,10.0,WNW,12.7,-,N/A,,Overcast,300,2013-12-02 13:53:00
9:53 AM,66.9,64.0,90,29.92,10.0,WNW,12.7,-,N/A,,Mostly Cloudy,300,2013-12-02 14:53:00
10:00 AM,66.2,64.4,94,29.92,10.0,WNW,11.5,-,N/A,,Mostly Cloudy,300,2013-12-02 15:00:00
10:13 AM,68.0,62.6,83,29.91,10.0,WNW,12.7,-,N/A,,Mostly Cloudy,300,2013-12-02 15:13:00
10:53 AM,68.0,63.0,84,29.90,10.0,WNW,11.5,-,N/A,,Mostly Cloudy,300,2013-12-02 15:53:00
11:53 AM,69.1,63.0,81,29.88,10.0,WNW,10.4,-,N/A,,Mostly Cloudy,300,2013-12-02 16:53:00
12:53 PM,70.0,61.0,73,29.86,10.0,NW,9.2,-,N/A,,Mostly Cloudy,320,2013-12-02 17:53:00
1:53 PM,72.0,60.1,66,29.83,10.0,NNW,9.2,-,N/A,,Mostly Cloudy,330,2013-12-02 18:53:00
2:53 PM,70.0,60.1,71,29.83,10.0,WNW,6.9,-,N/A,,Mostly Cloudy,300,2013-12-02 19:53:00
3:53 PM,70.0,61.0,73,29.83,10.0,WNW,8.1,-,N/A,,Mostly Cloudy,300,2013-12-02 20:53:00
4:53 PM,68.0,61.0,78,29.85,10.0,West,5.8,-,N/A,,Mostly Cloudy,280,2013-12-02 21:53:00
5:53 PM,66.0,60.1,81,29.87,10.0,West,4.6,-,N/A,,Mostly Cloudy,280,2013-12-02 22:53:00
6:53 PM,64.9,61.0,87,29.89,10.0,West,5.8,-,N/A,,Mostly Cloudy,280,2013-12-02 23:53:00
7:53 PM,64.0,60.1,87,29.90,10.0,West,3.5,-,N/A,,Scattered Clouds,280,2013-12-03 00:53:00
8:53 PM,64.0,60.1,87,29.90,10.0,SW,3.5,-,N/A,,Scattered Clouds,220,2013-12-03 01:53:00
9:53 PM,63.0,60.1,90,29.92,10.0,West,3.5,-,N/A,,Scattered Clouds,260,2013-12-03 02:53:00
10:53 PM,63.0,60.1,90,29.92,10.0,Calm,Calm,-,N/A,,Partly Cloudy,0,2013-12-03 03:53:00
11:53 PM,62.1,60.1,93,29.91,10.0,Calm,Calm,-,N/A,,Partly Cloudy,0,2013-12-03 04:53:00